Location: ?????????
(55.6553°N, 38.9075°E)
Time: 21:44:25
(UTC+00:00)

Cosmos 1726 Rocket - Pass Details

Date: 18 October 2019
Orbit: 602 x 630 km, 82.5° (Epoch: 17 November)

Event Time Altitude Azimuth Distance (km) Brightness Sun altitude
Rises 02:44:57 0° 344° (NNW) 2,878 6.8 -11.3°
Reaches altitude 10° 02:47:14 10° 338° (NNW) 1,966 5.9 -11.0°
Maximum altitude 02:51:22 44° 266° (W) 844 3.8 -10.4°
Drops below altitude 10° 02:55:27 10° 195° (SSW) 1,947 6.0 -9.8°
Sets 02:57:43 0° 189° (S) 2,845 6.9 -9.5°
